Istanbul, Turkey

5:30 AM +03 on April 26, 2018 (GMT +0300)
Ataturk

Weather History for LTBA - October, 2013

Change the Weather History Date:

Wednesday, October 2, 2013

  Actual Average Record
Temperature  
Mean Temperature 54 °F -  
Max Temperature 56 °F 65 °F 77 °F (2012)
Min Temperature 50 °F 54 °F 50 °F (2013)
Degree Days  
Heating Degree Days 12    
Growing Degree Days 4 (Base 50)    
Moisture  
Dew Point 50 °F    
Average Humidity 85    
Maximum Humidity 100    
Minimum Humidity 64    
Precipitation  
Precipitation 0.04 in - - ()
Sea Level Pressure  
Sea Level Pressure 29.85 in    
Wind  
Wind Speed 19 mph ()    
Max Wind Speed 25 mph    
Max Gust Speed -    
Visibility 5.5 miles    
Events Rain    
Averages and records for this station are not official NWS values.
T = Trace of Precipitation, MM = Missing Value Source: Averaged Metar Reports

Daily Weather History Graph

Daily Weather History Graph

Search for Another Location

Airport or City:

Astronomy

Oct. 02, 2013 Rise Set
Actual Time 7:02 AM EEST 6:45 PM EEST
Civil Twilight 6:34 AM EEST 7:12 PM EEST
Nautical Twilight 6:03 AM EEST 7:44 PM EEST
Astronomical Twilight 5:30 AM EEST 8:16 PM EEST
Moon 4:14 AM EEST (10/2) 5:11 PM EEST (10/2)
Length of Visible Light 12h 37m
Length of Day
11h 42m
Waning Crescent, 8% of the Moon is Illuminated
Oct 2
Waning Crescent
Oct 5
New
Oct 12
First Quarter
Oct 19
Full
Oct 27
Last Quarter

Hourly Weather History & Observations

Time (EEST) Temp. Dew Point Humidity Pressure Visibility Wind Dir Wind Speed Gust Speed Precip Events Conditions
12:20 AM 57.2 °F 50.0 °F 77% 29.68 in 6.2 mi NNW 24.2 mph - N/A   Mostly Cloudy
12:50 AM 55.4 °F 50.0 °F 82% 29.68 in 6.2 mi NNW 21.9 mph - N/A   Mostly Cloudy
1:20 AM 55.4 °F 50.0 °F 82% 29.68 in 6.2 mi NNW 24.2 mph - N/A   Mostly Cloudy
1:50 AM 55.4 °F 50.0 °F 82% 29.68 in 6.2 mi NNW 23.0 mph - N/A   Mostly Cloudy
2:20 AM 55.4 °F 50.0 °F 82% 29.68 in 6.2 mi NNW 20.7 mph - N/A   Mostly Cloudy
2:44 AM 55.4 °F 51.8 °F 88% 29.68 in 4.3 mi NNW 18.4 mph - N/A Rain Light Rain Showers
2:50 AM 55.4 °F 51.8 °F 88% 29.68 in 3.7 mi NNW 18.4 mph - N/A Rain Light Rain Showers
3:20 AM 55.4 °F 53.6 °F 94% 29.68 in 4.3 mi NNW 18.4 mph - N/A Rain Light Rain Showers
3:50 AM 55.4 °F 53.6 °F 94% 29.68 in 4.3 mi NNW 19.6 mph - N/A Rain Light Rain Showers
4:20 AM 55.4 °F 55.4 °F 100% 29.68 in 4.3 mi NNW 17.3 mph - N/A Rain Light Rain Showers
4:50 AM 57.2 °F 55.4 °F 94% 29.68 in 4.3 mi NNW 17.3 mph - N/A Rain Light Rain Showers
5:20 AM 57.2 °F 55.4 °F 94% 29.71 in 4.3 mi NW 16.1 mph - N/A Rain Light Rain Showers
5:50 AM 57.2 °F 55.4 °F 94% 29.71 in 5.0 mi NNW 18.4 mph - N/A Rain Light Rain Showers
6:20 AM 57.2 °F 55.4 °F 94% 29.71 in 5.0 mi NNW 16.1 mph - N/A Rain Light Rain Showers
6:50 AM 57.2 °F 55.4 °F 94% 29.74 in 4.3 mi NNW 19.6 mph - N/A Rain Light Rain Showers
7:20 AM 57.2 °F 55.4 °F 94% 29.74 in 4.3 mi North 21.9 mph - N/A Rain Light Rain Showers
7:50 AM 57.2 °F 53.6 °F 88% 29.77 in 4.3 mi NNW 20.7 mph - N/A Rain Light Rain Showers
8:20 AM 55.4 °F 53.6 °F 94% 29.77 in 3.7 mi NNW 20.7 mph - N/A Rain Light Rain Showers
8:50 AM 55.4 °F 53.6 °F 94% 29.77 in 6.2 mi NNW 23.0 mph - N/A Rain Light Rain Showers
9:00 AM 56 °F 54 °F 90% 29.80 in 6 mi NNW 23.0 mph - - Rain Light Rain Showers
9:20 AM 55.4 °F 53.6 °F 94% 29.80 in 6.2 mi NNW 19.6 mph - N/A Rain Light Rain Showers
9:50 AM 55.4 °F 53.6 °F 94% 29.80 in 6.2 mi NNW 23.0 mph - N/A Rain Light Rain Showers
10:20 AM 55.4 °F 53.6 °F 94% 29.80 in 6.2 mi NNW 25.3 mph - N/A Rain Light Rain Showers
10:50 AM 55.4 °F 51.8 °F 88% 29.83 in 6.2 mi NNW 24.2 mph - N/A Rain Light Rain Showers
11:20 AM 55.4 °F 51.8 °F 88% 29.83 in 6.2 mi NNW 24.2 mph - N/A Rain Light Rain Showers
11:50 AM 55.4 °F 50.0 °F 82% 29.86 in 6.2 mi North 23.0 mph - N/A Rain Light Rain Showers
12:20 PM 55.4 °F 50.0 °F 82% 29.86 in 6.2 mi North 24.2 mph - N/A Rain Light Rain Showers
1:20 PM 55.4 °F 48.2 °F 77% 29.89 in 6.2 mi NNW 25.3 mph - N/A Rain Light Rain Showers
1:50 PM 55.4 °F 48.2 °F 77% 29.89 in 6.2 mi NNW 19.6 mph - N/A Rain Light Rain Showers
2:20 PM 53.6 °F 48.2 °F 82% 29.89 in 6.2 mi North 18.4 mph - N/A Rain Light Rain Showers
2:50 PM 53.6 °F 48.2 °F 82% 29.89 in 6.2 mi NNW 17.3 mph - N/A Rain Light Rain Showers
3:00 PM 54 °F 48 °F 74% 29.91 in 6 mi NNW 17.3 mph - - Rain Light Rain Showers
3:20 PM 55.4 °F 48.2 °F 77% 29.92 in 6.2 mi North 18.4 mph - N/A   Mostly Cloudy
3:50 PM 53.6 °F 46.4 °F 77% 29.92 in 6.2 mi North 23.0 mph - N/A   Mostly Cloudy
4:20 PM 53.6 °F 48.2 °F 82% 29.92 in 6.2 mi NNW 21.9 mph - N/A Rain Light Rain Showers
4:50 PM 53.6 °F 50.0 °F 88% 29.92 in 6.2 mi NNW 19.6 mph - N/A Rain Light Rain Showers
5:20 PM 53.6 °F 48.2 °F 82% 29.92 in 6.2 mi North 18.4 mph - N/A Rain Light Rain Showers
5:50 PM 51.8 °F 48.2 °F 88% 29.95 in 6.2 mi North 17.3 mph - N/A Rain Light Rain Showers
6:20 PM 51.8 °F 48.2 °F 88% 29.95 in 6.2 mi NNW 17.3 mph - N/A Rain Light Rain Showers
6:50 PM 51.8 °F 48.2 °F 88% 29.95 in 3.7 mi North 15.0 mph - N/A Rain Light Rain Showers
7:20 PM 51.8 °F 46.4 °F 82% 29.98 in 4.3 mi NNW 18.4 mph - N/A Rain Light Rain Showers
7:50 PM 51.8 °F 46.4 °F 82% 29.98 in 6.2 mi NNW 17.3 mph - N/A Rain Light Rain Showers
8:20 PM 51.8 °F 44.6 °F 76% 29.98 in 6.2 mi NNW 20.7 mph - N/A Rain Light Rain Showers
8:50 PM 51.8 °F 44.6 °F 76% 29.98 in 6.2 mi NNW 19.6 mph - N/A   Mostly Cloudy
9:00 PM 53 °F 44 °F 64% 30.00 in 6 mi NNW 19.6 mph - - Rain Light Rain Showers
9:20 PM 53.6 °F 44.6 °F 72% 30.01 in 6.2 mi North 19.6 mph - N/A   Mostly Cloudy
9:50 PM 53.6 °F 44.6 °F 72% 30.01 in 6.2 mi North 17.3 mph - N/A   Mostly Cloudy
10:20 PM 51.8 °F 44.6 °F 76% 30.01 in 6.2 mi North 18.4 mph - N/A   Mostly Cloudy
10:50 PM 51.8 °F 44.6 °F 76% 30.01 in 6.2 mi North 19.6 mph - N/A   Mostly Cloudy
10:59 PM 51.8 °F 44.6 °F 76% 30.01 in 4.3 mi North 23.0 mph - N/A Rain Light Rain Showers
11:20 PM 51.8 °F 44.6 °F 76% 30.04 in 4.3 mi NNW 20.7 mph - N/A Rain Light Rain Showers
11:50 PM 50.0 °F 46.4 °F 87% 30.04 in 4.3 mi NNW 17.3 mph - N/A Rain Light Rain Showers